Location: New Canada
(47.1017°N, 68.5042°W)
Time: 17:56:34
(UTC+00:00)

CAS-4B - Visible Passes

Search period start: 16 April 2024 00:00
Search period end: 26 April 2024 00:00
Orbit: 480 x 498 km, 43.0° (Epoch: 16 April)

Date Brightness Start Highest point End Pass type
(mag) Time Alt. Az. Time Alt. Az. Time Alt. Az.
16 Apr ? 08:59:52 10° SSW 09:02:58 23° SSE 09:06:05 10° ESE visible
17 Apr ? 08:34:33 12° SSW 08:37:11 23° SSE 08:40:18 10° ESE visible
18 Apr ? 08:09:48 18° SSW 08:11:22 23° SSE 08:14:28 10° ESE visible
19 Apr ? 07:44:59 23° S 07:45:29 23° SSE 07:48:35 10° ESE visible
20 Apr ? 07:20:06 23° SE 07:20:06 23° SE 07:22:40 10° ESE visible
20 Apr ? 08:54:31 10° WSW 08:58:10 44° S 09:01:51 10° ESE visible
21 Apr ? 06:55:09 18° ESE 06:55:09 18° ESE 06:56:42 10° ESE visible
21 Apr ? 08:29:29 16° WSW 08:32:12 44° S 08:35:53 10° ESE visible
22 Apr ? 06:30:09 13° ESE 06:30:09 13° ESE 06:30:42 10° ESE visible
22 Apr ? 08:04:29 26° SW 08:06:12 44° S 08:09:51 10° ESE visible
23 Apr ? 07:39:28 39° SSW 07:40:09 44° S 07:43:48 10° ESE visible
24 Apr ? 07:14:25 42° SSE 07:14:25 42° SSE 07:17:42 10° ESE visible
24 Apr ? 08:49:13 10° W 08:52:46 37° SSW 08:56:20 10° SE visible
25 Apr ? 06:49:23 28° ESE 06:49:23 28° ESE 06:51:33 10° ESE visible
25 Apr ? 08:23:43 14° WSW 08:26:37 37° SSW 08:30:10 10° SE visible
